Location: Newark
(48.3453°N, 0.5589°E)
Time: 17:33:56
(UTC+00:00)

Vanguard 2 Rocket - Visible Passes

Search period start: 11 December 2019 00:00
Search period end: 21 December 2019 00:00
Orbit: 554 x 3326 km, 32.9° (Epoch: 10 December)

Date Brightness Start Highest point End Pass type
(mag) Time Alt. Az. Time Alt. Az. Time Alt. Az.
11 Dec 9.6 17:03:44 10° SSW 17:15:20 26° SSE 17:23:14 10° ESE visible
11 Dec 8.8 19:19:01 10° WSW 19:28:59 30° S 19:30:24 29° S visible
11 Dec 10.0 21:35:55 10° WSW 21:36:12 11° WSW 21:36:12 11° WSW visible
12 Dec 9.1 18:17:23 10° SW 18:29:10 32° S 18:34:17 20° SE visible
12 Dec 9.3 20:34:06 10° WSW 20:40:05 23° SW 20:40:05 23° SW visible
13 Dec 9.6 17:15:49 10° SW 17:29:02 32° S 17:37:38 10° ESE visible
13 Dec 8.9 19:32:15 10° WSW 19:42:38 31° SSW 19:43:58 30° S visible
14 Dec 9.8 16:14:31 10° SW 16:28:37 31° SSE 16:38:17 10° ESE visible
14 Dec 9.1 18:30:20 10° WSW 18:42:50 35° S 18:47:52 22° SE visible
14 Dec 9.5 20:47:53 10° WSW 20:53:41 21° SW 20:53:41 21° SW visible
15 Dec 9.6 17:28:26 10° SW 17:42:41 37° S 17:51:45 10° ESE visible
15 Dec 9.0 19:45:43 10° WSW 19:56:10 30° SSW 19:57:34 29° S visible
16 Dec 9.8 16:26:43 10° SW 16:42:11 37° S 16:52:32 10° ESE visible
16 Dec 9.1 18:43:33 10° WSW 18:56:24 36° SSW 19:01:30 23° SE visible
16 Dec 9.7 21:02:02 10° WSW 21:07:19 18° SW 21:07:19 18° SW visible
17 Dec 9.6 17:41:23 10° WSW 17:56:15 40° S 18:05:28 11° ESE visible
17 Dec 9.2 19:59:25 10° WSW 20:09:32 27° SSW 20:11:16 25° SSW visible
18 Dec 9.8 16:39:24 10° WSW 16:55:44 41° S 17:06:33 10° ESE visible
18 Dec 9.3 18:56:59 10° WSW 19:09:51 34° SSW 19:15:15 21° SSE visible
18 Dec 9.9 21:16:53 10° WSW 21:21:05 14° SW 21:21:05 14° SW visible
19 Dec 9.7 17:54:37 10° WSW 18:09:46 40° SSW 18:19:17 10° SE visible
19 Dec 9.5 20:13:25 10° W 20:22:41 22° SW 20:25:07 21° SSW visible
20 Dec 9.9 16:52:24 10° WSW 17:09:14 43° S 17:20:23 10° ESE visible
20 Dec 9.5 19:10:38 10° W 19:23:08 31° SSW 19:29:11 18° SSE visible
